When you browse on this site, cookies collect data to enhance your experience and personalize the content and advertising you see.
Visit our Privacy Policy to learn more. By continuing to use the site, you agree to this use of cookies and data.
  • In Hungary
  • List of Countries
  • For 7 days
  • Water Temperature
  • Satellite Maps
  • Weather Map
  • News
  • Weather Widgets
  • user-avatar
    Login

    Hourly Weather Tbilisi

    Today, 18 November, Sunday

    Time Temperature Precipitation Wind Pressure Humidity
    00:00 +4°C° 0 mm 2 mps 707 mmHg 75%
    01:00 +3°C° 0 mm 2 mps 707 mmHg 75%
    02:00 +3°C° 0 mm 2 mps 706 mmHg 74%
    03:00 +3°C° 0 mm 3 mps 706 mmHg 71%
    04:00 +3°C° 0 mm 3 mps 706 mmHg 72%
    05:00 +3°C° 0 mm 2 mps 706 mmHg 73%
    06:00 +3°C° 0 mm 2 mps 705 mmHg 74%
    07:00 +4°C° 0 mm 2 mps 705 mmHg 69%
    08:00 +6°C° 0 mm 1 mps 705 mmHg 64%
    09:00 +7°C° 0 mm 2 mps 705 mmHg 59%
    10:00 +8°C° 0 mm 2 mps 705 mmHg 55%
    11:00 +9°C° 0 mm 2 mps 705 mmHg 52%
    12:00 +10°C° 0 mm 2 mps 705 mmHg 48%
    13:00 +10°C° 0 mm 2 mps 705 mmHg 48%
    14:00 +10°C° 0 mm 2 mps 704 mmHg 48%
    15:00 +9°C° 0 mm 3 mps 704 mmHg 52%
    16:00 +8°C° 0 mm 2 mps 705 mmHg 58%
    17:00 +6°C° 0 mm 2 mps 705 mmHg 64%
    18:00 +6°C° 0 mm 1 mps 705 mmHg 70%
    19:00 +6°C° 0 mm 1 mps 705 mmHg 71%
    20:00 +5°C° 0 mm 1 mps 705 mmHg 72%
    21:00 +5°C° 0 mm 1 mps 705 mmHg 73%
    22:00 +5°C° 0 mm 1 mps 705 mmHg 73%
    23:00 +4°C° 0 mm 1 mps 705 mmHg 73%

    Tomorrow, 19 November, Monday

    Time Temperature Precipitation Wind Pressure Humidity
    00:00 +4°C° 0 mm 1 mps 705 mmHg 73%
    01:00 +4°C° 0 mm 1 mps 705 mmHg 73%
    02:00 +4°C° 0 mm 1 mps 705 mmHg 72%
    03:00 +4°C° 0 mm 1 mps 705 mmHg 71%
    04:00 +4°C° 0 mm 1 mps 705 mmHg 71%
    05:00 +3°C° 0 mm 1 mps 705 mmHg 70%
    06:00 +3°C° 0 mm 1 mps 705 mmHg 70%
    07:00 +4°C° 0 mm 1 mps 705 mmHg 64%
    08:00 +6°C° 0 mm 1 mps 705 mmHg 59%
    09:00 +7°C° 0 mm 1 mps 705 mmHg 54%
    10:00 +8°C° 0 mm 1 mps 705 mmHg 51%
    11:00 +9°C° 0 mm 1 mps 705 mmHg 47%
    12:00 +10°C° 0 mm 1 mps 704 mmHg 44%
    13:00 +9°C° 0 mm 2 mps 704 mmHg 45%
    14:00 +9°C° 0 mm 2 mps 704 mmHg 45%
    15:00 +9°C° 0 mm 2 mps 704 mmHg 46%
    16:00 +9°C° 0 mm 1 mps 704 mmHg 52%
    17:00 +8°C° 0 mm 1 mps 705 mmHg 58%
    18:00 +6°C° 0 mm 1 mps 705 mmHg 63%
    19:00 +6°C° 0 mm 1 mps 705 mmHg 64%
    20:00 +6°C° 0 mm 1 mps 705 mmHg 65%
    21:00 +5°C° 0 mm 1 mps 705 mmHg 66%
    22:00 +5°C° 0 mm 1 mps 705 mmHg 66%
    23:00 +5°C° 0 mm 1 mps 705 mmHg 66%

    Day after tomorrow, 20 November, Tuesday

    Time Temperature Precipitation Wind Pressure Humidity
    00:00 +5°C° 0 mm 1 mps 705 mmHg 67%
    01:00 +4°C° 0 mm 1 mps 705 mmHg 67%
    02:00 +4°C° 0 mm 1 mps 705 mmHg 67%
    03:00 +4°C° 0 mm 1 mps 704 mmHg 66%
    04:00 +4°C° 0 mm 1 mps 704 mmHg 66%
    05:00 +4°C° 0 mm 1 mps 704 mmHg 65%
    06:00 +4°C° 0 mm 1 mps 704 mmHg 64%
    07:00 +6°C° 0 mm 1 mps 704 mmHg 60%
    08:00 +7°C° 0 mm 1 mps 704 mmHg 55%
    09:00 +8°C° 0 mm 1 mps 704 mmHg 51%
    10:00 +9°C° 0 mm 1 mps 703 mmHg 47%
    11:00 +11°C° 0 mm 1 mps 703 mmHg 44%
    12:00 +12°C° 0 mm 1 mps 702 mmHg 40%
    13:00 +12°C° 0 mm 1 mps 702 mmHg 41%
    14:00 +12°C° 0 mm 2 mps 702 mmHg 42%
    15:00 +13°C° 0 mm 2 mps 702 mmHg 43%
    16:00 +10°C° 0 mm 2 mps 702 mmHg 48%
    17:00 +10°C° 0 mm 1 mps 702 mmHg 53%
    18:00 +9°C° 0 mm 1 mps 702 mmHg 58%
    19:00 +9°C° 0 mm 1 mps 702 mmHg 61%
    20:00 +7°C° 0 mm 2 mps 702 mmHg 64%
    21:00 +7°C° 0 mm 2 mps 702 mmHg 66%
    22:00 +7°C° 0 mm 2 mps 702 mmHg 69%
    23:00 +7°C° 0 mm 2 mps 702 mmHg 71%

    21 November, Wednesday

    Time Temperature Precipitation Wind Pressure Humidity
    00:00 +6°C° 0 mm 2 mps 702 mmHg 73%
    01:00 +6°C° 0 mm 2 mps 702 mmHg 75%
    02:00 +6°C° 0 mm 2 mps 702 mmHg 76%
    03:00 +6°C° 0 mm 2 mps 702 mmHg 78%
    04:00 +6°C° 0 mm 2 mps 702 mmHg 79%
    05:00 +6°C° 0 mm 2 mps 702 mmHg 79%
    06:00 +6°C° 0 mm 2 mps 701 mmHg 80%
    07:00 +7°C° 0 mm 3 mps 702 mmHg 75%
    08:00 +8°C° 0 mm 3 mps 702 mmHg 70%
    09:00 +9°C° 0 mm 3 mps 702 mmHg 65%
    10:00 +11°C° 0 mm 3 mps 701 mmHg 60%
    11:00 +12°C° 0 mm 3 mps 701 mmHg 55%
    12:00 +13°C° 0 mm 4 mps 700 mmHg 49%
    13:00 +13°C° 0 mm 3 mps 700 mmHg 49%
    14:00 +13°C° 0 mm 3 mps 700 mmHg 49%
    15:00 +14°C° 0 mm 2 mps 699 mmHg 49%
    16:00 +13°C° 0 mm 2 mps 699 mmHg 55%
    17:00 +11°C° 0 mm 1 mps 699 mmHg 61%
    18:00 +10°C° 0 mm 1 mps 699 mmHg 67%
    19:00 +10°C° 0.1 mm 1 mps 699 mmHg 68%
    20:00 +9°C° 0.1 mm 1 mps 699 mmHg 69%
    21:00 +9°C° 0.1 mm 1 mps 700 mmHg 71%
    22:00 +9°C° 0.2 mm 1 mps 699 mmHg 72%
    23:00 +8°C° 0.2 mm 1 mps 699 mmHg 74%

    22 November, Thursday

    Time Temperature Precipitation Wind Pressure Humidity
    00:00 +8°C° 0.2 mm 1 mps 699 mmHg 76%
    01:00 +8°C° 0.1 mm 1 mps 699 mmHg 77%
    02:00 +7°C° 0.1 mm 1 mps 698 mmHg 79%
    03:00 +7°C° 0.1 mm 1 mps 698 mmHg 80%
    04:00 +7°C° 0 mm 1 mps 698 mmHg 81%
    05:00 +6°C° 0 mm 1 mps 698 mmHg 82%
    06:00 +6°C° 0 mm 1 mps 698 mmHg 83%
    07:00 +7°C° 0 mm 1 mps 698 mmHg 80%
    08:00 +7°C° 0 mm 1 mps 698 mmHg 77%
    09:00 +8°C° 0 mm 1 mps 698 mmHg 74%
    10:00 +9°C° 0 mm 1 mps 698 mmHg 70%
    11:00 +10°C° 0 mm 1 mps 698 mmHg 65%
    12:00 +11°C° 0 mm 1 mps 697 mmHg 61%
    13:00 +11°C° 0 mm 1 mps 697 mmHg 61%
    14:00 +12°C° 0 mm 1 mps 697 mmHg 62%
    15:00 +12°C° 0 mm 1 mps 697 mmHg 62%
    16:00 +11°C° 0 mm 1 mps 697 mmHg 67%
    17:00 +10°C° 0 mm 1 mps 697 mmHg 72%
    18:00 +9°C° 0 mm 1 mps 698 mmHg 78%
    19:00 +9°C° 0 mm 1 mps 698 mmHg 79%
    20:00 +8°C° 0 mm 1 mps 698 mmHg 81%
    21:00 +7°C° 0 mm 0 mps 698 mmHg 82%
    22:00 +8°C° 0.1 mm 1 mps 698 mmHg 84%
    23:00 +8°C° 0.1 mm 1 mps 698 mmHg 85%

    23 November, Friday

    Time Temperature Precipitation Wind Pressure Humidity
    00:00 +7°C° 0.1 mm 1 mps 698 mmHg 86%
    01:00 +7°C° 0.1 mm 1 mps 698 mmHg 87%
    02:00 +6°C° 0.1 mm 0 mps 698 mmHg 88%
    03:00 +6°C° 0.1 mm 0 mps 698 mmHg 89%
    04:00 +6°C° 0.2 mm 0 mps 698 mmHg 89%
    05:00 +6°C° 0.2 mm 0 mps 698 mmHg 89%
    06:00 +6°C° 0.2 mm 0 mps 699 mmHg 90%
    07:00 +7°C° 0.2 mm 1 mps 699 mmHg 88%
    08:00 +8°C° 0.2 mm 1 mps 700 mmHg 86%
    09:00 +8°C° 0.2 mm 1 mps 700 mmHg 84%
    10:00 +8°C° 0.1 mm 2 mps 700 mmHg 79%
    11:00 +9°C° 0.1 mm 2 mps 701 mmHg 74%
    12:00 +10°C° 0.1 mm 3 mps 701 mmHg 69%
    13:00 +10°C° 0 mm 3 mps 701 mmHg 67%
    14:00 +10°C° 0 mm 3 mps 701 mmHg 65%
    15:00 +10°C° 0 mm 3 mps 702 mmHg 63%
    16:00 +9°C° 0 mm 3 mps 702 mmHg 67%
    17:00 +8°C° 0 mm 2 mps 703 mmHg 70%
    18:00 +7°C° 0 mm 2 mps 703 mmHg 74%
    19:00 +6°C° 0 mm 2 mps 704 mmHg 75%
    20:00 +7°C° 0 mm 1 mps 704 mmHg 77%
    21:00 +7°C° 0 mm 1 mps 705 mmHg 78%
    22:00 +6°C° 0 mm 1 mps 705 mmHg 79%
    23:00 +6°C° 0 mm 1 mps 705 mmHg 80%
    Show more